Location: *
(42.5628°N, 2.3633°E)
Time: 07:54:37
(UTC+00:00)

Ariane Rocket - Pass Details

Date: 30 March 2020
Orbit: 761 x 769 km, 98.7° (Epoch: 03 June)

Event Time Altitude Azimuth Distance (km) Brightness Sun altitude
Rises 19:35:48 0° 177° (S) 3,220 6.0 -15.3°
Reaches altitude 10° 19:38:09 10° 182° (S) 2,297 5.3 -15.7°
Maximum altitude 19:43:06 54° 259° (W) 928 3.7 -16.6°
Drops below altitude 10° 19:48:05 10° 337° (NNW) 2,308 6.1 -17.4°
Sets 19:50:27 0° 342° (NNW) 3,238 6.9 -17.8°
